Regional Weather Roundup
Issued by NWS

Home | Current Version | Previous Version | Text Only | Print | Product List | Glossary Off
Versions: 1 2 3 4 5 6 7 8 9 10 11 12 13 14 15 16 17 18 19 20 21 22 23 24 25 26 27 28 29 30 31 32 33 34 35 36 37 38 39 40 41 42 43 44 45 46 47 48 49 50

000
ASUS43 KLMK 290102
RWRKY
KENTUCKY REGIONAL WEATHER ROUNDUP
NATIONAL WEATHER SERVICE LOUISVILLE KY
900 PM EDT TUE MAR 28 2017

NOTE "FAIR" INDICATES FEW OR NO CLOUDS BELOW 12,000 FEET
WITH NO SIGNIFICANT WEATHER AND/OR OBSTRUCTIONS TO VISIBILITY.

KYZ001>023-026-027-061>063-070>075-290200-
WESTERN AND SOUTH CENTRAL KENTUCKY

CITY           SKY/WX    TMP DP  RH WIND       PRES   REMARKS
PADUCAH        CLOUDY    59  51  75 NE6       30.04R
HENDERSON      CLEAR     54  46  76 E7        30.06S
OWENSBORO      MOCLDY   N/A N/A N/A N7        30.07S
HOPKINSVILLE   CLEAR     56  56 100 NE8       30.04R
BOWLING GREEN  CLOUDY    61  55  81 NW3       30.06R
GLASGOW        NOT AVBL
$$

KYZ024-025-028>034-038-045-046-053-290200-
NORTH CENTRAL KENTUCKY

CITY           SKY/WX    TMP DP  RH WIND       PRES   REMARKS
LOUISVILLE/SDF PTCLDY    59  47  64 N9        30.08R
LOUISVILLE/LOU CLEAR     59  49  69 N5        30.09R
FORT KNOX      CLOUDY    59  51  74 N8        30.06R
$$

KYZ035>037-039>044-047>052-055>060-089>105-290200-
NORTHEAST KENTUCKY

CITY           SKY/WX    TMP DP  RH WIND       PRES   REMARKS
LEXINGTON      CLOUDY    58  52  80 N7        30.08R
COVINGTON      CLOUDY    55  48  77 N13       30.10R
FRANKFORT      CLOUDY    60  50  69 N5        30.07R
$$

KYZ054-064>069-076>088-106>120-290200-
SOUTHEAST KENTUCKY

CITY           SKY/WX    TMP DP  RH WIND       PRES   REMARKS
JACKSON        CLOUDY    59  53  80 NW3       30.05R
LONDON         CLOUDY    60  52  74 NW5       30.05R
SOMERSET       CLOUDY    59  52  77 N3        30.07R
MIDDLESBORO    CLOUDY    61  51  70 CALM      30.05R
MONTICELLO     CLOUDY    59  54  83 N13       30.08R
$$




USA.gov is the U.S. government's official web portal to all federal, state and local government web resources and services.